{"data":{"norad_id":58823,"epoch":"2026-05-25T05:15:57.691872Z","epoch_age_seconds":59165,"freshness":"FRESH","line1":"1 58823U 24016D   26145.21941773  .00042388  00000+0  73703-3 0  9998","line2":"2 58823  97.4321 234.4363 0007581 152.5417 207.6237 15.50658093130211","mean_motion":15.50658093,"eccentricity":0.0007581,"inclination_deg":97.4321,"raan_deg":234.4363,"arg_perigee_deg":152.5417,"mean_anomaly_deg":207.6237,"bstar":0.00073703,"rev_number":13021,"period_min":92.863798054546,"perigee_km":409.65373017888,"apogee_km":419.95318650182,"semimajor_km":6792.9404583403,"source":"CELESTRAK","updated_at":"2026-05-25T13:38:01.003926Z"}}